F9741 Weather Reports


time (UTC)temp
F
wind
direction
speed
knots
gust
knots
rain 1hr
in
rain 24hr
in
rain mn
in
humidity
%
barometer
mb
20260507114220 44 238 3.5 7.8 0.00 0.00 0.00 81 1014.3
20260507113715 44 228 3.5 7.8 0.00 0.00 0.00 81 1014.3
20260507113207 44 243 3.5 7.0 0.00 0.00 0.00 81 1014.2
20260507112701 44 240 2.6 5.2 0.00 0.00 0.00 81 1014.2
20260507112156 44 236 1.7 6.1 0.00 0.00 0.00 80 1014.2
20260507111651 44 240 2.6 6.1 0.00 0.00 0.00 80 1014.1
20260507111145 44 242 2.6 7.0 0.00 0.00 0.00 80 1014.3
20260507110636 44 240 2.6 7.0 0.00 0.00 0.00 80 1014.3
20260507110132 44 228 2.6 7.0 0.00 0.00 0.00 80 1014.2
20260507105625 44 265 3.5 7.0 0.00 0.00 0.00 80 1014.2
20260507105120 45 242 2.6 8.7 0.00 0.00 0.00 80 1014.2
20260507104616 45 242 2.6 8.7 0.00 0.00 0.00 79 1014.2
20260507104108 45 233 3.5 8.7 0.00 0.00 0.00 79 1014.1
20260507103602 45 236 3.5 8.7 0.00 0.00 0.00 79 1014.1
20260507103057 45 243 3.5 8.7 0.00 0.00 0.00 79 1014.0
20260507102551 45 242 3.5 9.6 0.00 0.00 0.00 79 1014.1
20260507102043 45 263 3.5 9.6 0.00 0.00 0.00 78 1014.1
20260507101538 45 240 3.5 9.6 0.00 0.00 0.00 78 1014.1
20260507101032 45 223 3.5 9.6 0.00 0.00 0.00 78 1014.1
20260507100525 45 228 3.5 8.7 0.00 0.00 0.00 78 1014.2
20260507100020 45 244 4.3 8.7 0.00 0.00 0.00 78 1014.3
20260507095514 45 237 4.3 8.7 0.00 0.00 0.00 78 1014.2
20260507095008 45 240 3.5 8.7 0.00 0.00 0.00 78 1014.2
20260507094502 45 246 2.6 7.0 0.00 0.00 0.00 77 1014.3
20260507093956 45 243 2.6 7.8 0.00 0.00 0.00 77 1014.4
20260507093450 45 240 3.5 7.8 0.00 0.00 0.00 77 1014.3
20260507092944 45 238 3.5 7.8 0.00 0.00 0.00 76 1014.3
20260507092438 45 239 3.5 7.8 0.00 0.00 0.00 76 1014.4
20260507091932 45 236 2.6 7.0 0.00 0.00 0.00 76 1014.5
20260507091425 45 240 2.6 7.8 0.00 0.00 0.00 75 1014.6
20260507091145 45 229 3.5 7.8 0.00 0.00 0.00 75 1014.6
20260507090643 45 234 3.5 7.0 0.00 0.00 0.00 75 1014.7
20260507085918 45 279 2.6 7.0 0.00 0.00 0.00 74 1014.7
20260507085416 45 236 2.6 6.1 0.00 0.00 0.00 74 1014.7
20260507084918 45 236 2.6 6.1 0.00 0.00 0.00 74 1014.9
20260507084640 45 236 2.6 6.1 0.00 0.00 0.00 73 1014.9
20260507083916 45 241 2.6 6.1 0.00 0.00 0.00 73 1015.0
20260507083416 45 240 2.6 6.1 0.00 0.00 0.00 72 1015.1
20260507082917 45 247 2.6 5.2 0.00 0.00 0.00 72 1015.1
20260507082416 45 245 1.7 5.2 0.00 0.00 0.00 72 1015.1
20260507081919 45 221 1.7 6.1 0.00 0.00 0.00 71 1015.1
20260507081641 45 240 2.6 6.1 0.00 0.00 0.00 71 1015.2
20260507080915 45 242 2.6 6.1 0.00 0.00 0.00 70 1015.3
20260507080415 45 239 2.6 6.1 0.00 0.00 0.00 70 1015.4
20260507075915 45 240 1.7 4.3 0.00 0.00 0.00 70 1015.4
20260507075415 45 231 1.7 4.3 0.00 0.00 0.00 69 1015.6
20260507074917 45 237 1.7 4.3 0.00 0.00 0.00 69 1015.7
20260507074411 45 231 0.9 3.5 0.00 0.00 0.00 68 1015.6
20260507073903 45 236 0.9 3.5 0.00 0.00 0.00 67 1015.7
20260507073405 45 239 0.9 4.3 0.00 0.00 0.00 66 1015.8
20260507072902 45 239 1.7 4.3 0.00 0.00 0.00 66 1015.9
20260507072404 45 239 1.7 4.3 0.00 0.00 0.00 65 1015.8
20260507071901 45 238 1.7 4.3 0.00 0.00 0.00 65 1016.0
20260507071401 45 238 1.7 4.3 0.00 0.00 0.00 65 1016.0
20260507070900 45 238 1.7 4.3 0.00 0.00 0.00 65 1016.1
20260507070359 45 241 1.7 4.3 0.00 0.00 0.00 65 1016.1
20260507065859 45 242 0.9 4.3 0.00 0.00 0.00 66 1016.2
20260507065359 44 255 0.0 2.6 0.00 0.00 0.00 67 1016.3
20260507064856 44 257 0.9 2.6 0.00 0.00 0.00 67 1016.3
20260507064356 44 257 0.9 1.7 0.00 0.00 0.00 67 1016.5
20260507063856 44 258 0.9 1.7 0.00 0.00 0.00 67 1016.5
20260507063403 43 258 0.0 0.9 0.00 0.00 0.00 65 1016.5
20260507063356 43 258 0.0 1.7 0.00 0.00 0.00 66 1016.4
20260507062354 44 258 0.0 0.0 0.00 0.00 0.00 64 1016.5
20260507062108 44 258 0.0 0.0 0.00 0.00 0.00 64 1016.6
20260507061619 44 258 0.0 1.7 0.00 0.00 0.00 64 1016.5
20260507061112 44 258 0.0 1.7 0.00 0.00 0.00 65 1016.6
20260507060347 44 258 0.0 1.7 0.00 0.00 0.00 65 1016.7
20260507055847 44 258 0.9 1.7 0.00 0.00 0.00 66 1016.7
20260507055347 44 258 0.0 1.7 0.00 0.00 0.00 66 1016.7
20260507054847 44 258 0.9 1.7 0.00 0.00 0.00 66 1016.7
20260507054346 44 258 0.9 1.7 0.00 0.00 0.00 67 1016.8
20260507053845 44 258 0.0 0.9 0.00 0.00 0.00 67 1016.8
20260507053346 44 258 0.0 0.9 0.00 0.00 0.00 67 1016.8
20260507052846 44 258 0.0 1.7 0.00 0.00 0.00 67 1016.9
20260507052618 44 258 0.0 1.7 0.00 0.00 0.00 66 1016.9
20260507051846 44 258 0.9 1.7 0.00 0.00 0.00 67 1016.8
20260507051344 44 258 0.9 2.6 0.00 0.00 0.00 67 1016.7
20260507050845 44 258 0.9 2.6 0.00 0.00 0.00 67 1016.8
20260507050345 45 258 0.0 2.6 0.00 0.00 0.00 66 1016.8
20260507050110 45 257 0.0 2.6 0.00 0.00 0.00 65 1016.9
20260507045341 46 257 0.0 0.0 0.00 0.00 0.00 63 1016.8
20260507045334 45 257 0.0 0.0 0.00 0.00 0.00 63 1016.8
20260507044557 45 257 0.0 0.0 0.00 0.00 0.00 63 1016.8
20260507044112 44 257 0.0 0.0 0.00 0.00 0.00 64 1017.1
20260507043335 44 257 0.0 0.0 0.00 0.00 0.00 62 1017.0
20260507042832 45 257 0.0 0.0 0.00 0.00 0.00 62 1017.1
20260507042333 45 257 0.0 0.0 0.00 0.00 0.00 62 1017.0
20260507041834 44 257 0.0 0.9 0.00 0.00 0.00 61 1017.1
20260507041556 44 257 0.0 0.9 0.00 0.00 0.00 61 1017.1
20260507040828 44 257 0.0 0.9 0.00 0.00 0.00 61 1017.1
20260507040329 44 257 0.0 0.9 0.00 0.00 0.00 61 1017.3
20260507040049 45 257 0.0 0.9 0.00 0.00 0.00 60 1017.2
20260507035555 45 257 0.0 0.9 0.00 0.00 0.00 59 1017.3
20260507034827 45 257 0.0 0.9 0.00 0.00 0.00 58 1017.4
20260507034327 46 257 0.0 0.0 0.00 0.00 0.00 57 1017.4
20260507033827 46 257 0.0 0.0 0.00 0.00 0.00 57 1017.5
20260507033326 46 257 0.0 0.9 0.00 0.00 0.00 56 1017.5
20260507032825 47 257 0.0 0.9 0.00 0.00 0.00 54 1017.6
20260507032325 47 257 0.0 0.9 0.00 0.00 0.00 52 1017.6
20260507032049 48 257 0.0 0.9 0.00 0.00 0.00 51 1017.4
20260507031548 48 257 0.0 1.7 0.00 0.00 0.00 49 1017.5
20260507030820 49 257 0.0 1.7 0.00 0.00 0.00 50 1017.5
20260507030319 49 257 0.9 1.7 0.00 0.00 0.00 49 1017.5
20260507025815 49 257 0.9 1.7 0.00 0.00 0.00 48 1017.5
20260507025314 49 257 0.0 1.7 0.00 0.00 0.00 47 1017.5
20260507024815 49 257 0.0 1.7 0.00 0.00 0.00 46 1017.6
20260507024315 50 257 0.9 1.7 0.00 0.00 0.00 46 1017.5
20260507023814 50 257 0.9 1.7 0.00 0.00 0.00 45 1017.6
20260507023315 50 256 0.9 1.7 0.00 0.00 0.00 46 1017.6
20260507022816 50 256 0.9 1.7 0.00 0.00 0.00 46 1017.4
20260507022313 50 255 0.0 1.7 0.00 0.00 0.00 46 1017.3
20260507022036 51 255 0.0 0.0 0.00 0.00 0.00 45 1017.4
20260507021315 51 255 0.0 0.9 0.00 0.00 0.00 44 1017.4
20260507020817 51 255 0.0 0.9 0.00 0.00 0.00 44 1017.2
20260507020532 51 255 0.0 0.9 0.00 0.00 0.00 44 1017.2
20260507015816 52 255 0.0 1.7 0.00 0.00 0.00 43 1017.1
20260507015315 52 255 0.0 1.7 0.00 0.00 0.00 42 1017.2
20260507015044 53 255 0.0 1.7 0.00 0.00 0.00 42 1017.2
20260507014312 53 255 0.9 1.7 0.00 0.00 0.00 40 1017.1
20260507013811 54 255 0.9 1.7 0.00 0.00 0.00 40 1017.0
20260507013313 54 255 0.9 1.7 0.00 0.00 0.00 40 1017.0
20260507012812 54 255 0.0 0.9 0.00 0.00 0.00 38 1017.1
20260507012312 55 255 0.0 0.9 0.00 0.00 0.00 37 1017.1
20260507012041 55 255 0.0 0.9 0.00 0.00 0.00 36 1017.2
20260507011315 56 255 0.0 0.9 0.00 0.00 0.00 35 1017.1
20260507010809 56 255 0.0 0.9 0.00 0.00 0.00 35 1017.1
20260507010312 56 255 0.0 0.9 0.00 0.00 0.00 35 1017.2
20260507005812 57 255 0.0 0.9 0.00 0.00 0.00 33 1017.1
20260507005312 57 255 0.0 0.9 0.00 0.00 0.00 33 1017.1
20260507004807 57 255 0.0 2.6 0.00 0.00 0.00 33 1017.1
20260507004307 58 255 0.0 2.6 0.00 0.00 0.00 32 1017.1
20260507003812 58 254 0.9 6.1 0.00 0.00 0.00 31 1017.2
20260507003304 58 255 0.9 6.1 0.00 0.00 0.00 32 1017.3
20260507002803 58 283 1.7 4.3 0.00 0.00 0.00 32 1017.3
20260507002305 58 71 0.9 5.2 0.00 0.00 0.00 31 1017.4
20260507001801 58 279 0.9 5.2 0.00 0.00 0.00 32 1017.4
20260507001302 59 264 0.9 5.2 0.00 0.00 0.00 32 1017.4
20260507000804 59 119 1.7 5.2 0.00 0.00 0.00 31 1017.4
20260507000259 59 277 1.7 5.2 0.00 0.00 0.00 30 1017.5
20260507000039 59 265 0.9 4.3 0.00 0.00 0.00 32 1017.5
20260506235259 59 265 1.7 4.3 0.00 0.00 0.00 32 1017.6
20260506234800 59 315 1.7 4.3 0.00 0.00 0.00 31 1017.7
20260506234513 60 258 0.9 4.3 0.00 0.00 0.00 32 1017.7
20260506234010 60 294 1.7 4.3 0.00 0.00 0.00 32 1017.6
20260506233241 60 226 1.7 4.3 0.00 0.00 0.00 30 1017.7
20260506232957 60 256 1.7 7.8 0.00 0.00 0.00 32 1017.6
20260506232230 60 288 1.7 7.8 0.00 0.00 0.00 32 1017.7
20260506231725 60 277 1.7 7.8 0.00 0.00 0.00 30 1017.8
20260506231216 61 286 2.6 7.8 0.00 0.00 0.00 31 1017.8
20260506230715 61 225 1.7 8.7 0.00 0.00 0.00 33 1017.8
20260506230214 61 300 1.7 8.7 0.00 0.00 0.00 31 1018.0
20260506225715 61 327 2.6 8.7 0.00 0.00 0.00 31 1018.0
20260506225214 61 22 2.6 8.7 0.00 0.00 0.00 30 1018.0
20260506224713 61 342 1.7 8.7 0.00 0.00 0.00 32 1017.8
20260506224213 60 302 1.7 7.8 0.00 0.00 0.00 32 1018.0
20260506223943 60 117 1.7 7.8 0.00 0.00 0.00 32 1018.0
20260506223209 60 61 2.6 7.8 0.00 0.00 0.00 31 1018.0
20260506222709 60 249 2.6 7.8 0.00 0.00 0.00 30 1018.1
20260506222211 60 115 1.7 17.4 0.00 0.00 0.00 32 1018.1
20260506221708 60 301 1.7 17.4 0.00 0.00 0.00 33 1018.2
20260506221433 60 338 2.6 17.4 0.00 0.00 0.00 32 1018.2
20260506220704 60 122 2.6 17.4 0.00 0.00 0.00 33 1018.3
20260506220203 60 238 1.7 6.1 0.00 0.00 0.00 33 1018.2
20260506215712 61 221 1.7 6.1 0.00 0.00 0.00 33 1018.3
20260506215204 61 256 2.6 9.6 0.00 0.00 0.00 31 1018.5
20260506214702 62 233 2.6 9.6 0.00 0.00 0.00 32 1018.3
20260506214155 62 249 2.6 9.6 0.00 0.00 0.00 35 1018.6
20260506213650 61 203 2.6 9.6 0.00 0.00 0.00 32 1018.6
20260506213143 61 38 1.7 7.8 0.00 0.00 0.00 31 1018.6
20260506212637 61 271 2.6 7.8 0.00 0.00 0.00 33 1018.6
20260506212131 60 41 1.7 7.8 0.00 0.00 0.00 32 1018.8
20260506211904 60 329 1.7 7.8 0.00 0.00 0.00 31 1018.7
20260506211119 60 113 2.6 7.8 0.00 0.00 0.00 33 1018.8
20260506210613 60 349 1.7 7.8 0.00 0.00 0.00 32 1018.8
20260506210106 60 336 1.7 7.0 0.00 0.00 0.00 33 1018.9
20260506205825 60 338 1.7 8.7 0.00 0.00 0.00 34 1019.0
20260506205056 60 269 1.7 8.7 0.00 0.00 0.00 33 1019.1
20260506204548 60 279 1.7 8.7 0.00 0.00 0.00 34 1019.1
20260506204044 60 310 2.6 8.7 0.00 0.00 0.00 33 1019.3
20260506203537 60 292 2.6 10.4 0.00 0.00 0.00 33 1019.2
20260506203033 61 271 3.5 10.4 0.00 0.00 0.00 34 1019.3
20260506202525 61 242 3.5 13.0 0.00 0.00 0.00 35 1019.3
20260506202020 61 278 3.5 13.0 0.00 0.00 0.00 36 1019.3
20260506201513 61 254 3.5 13.0 0.00 0.00 0.00 34 1019.4
20260506201008 61 257 2.6 13.0 0.00 0.00 0.00 37 1019.4
20260506200501 60 271 1.7 7.8 0.00 0.00 0.00 34 1019.5
20260506195956 60 73 1.7 7.8 0.00 0.00 0.00 35 1019.4
20260506195718 61 235 1.7 7.0 0.00 0.00 0.00 35 1019.4
20260506195215 61 338 2.6 7.0 0.00 0.00 0.00 37 1019.5
20260506194437 60 247 2.6 7.0 0.00 0.00 0.00 38 1019.6
20260506193932 60 225 3.5 9.6 0.00 0.00 0.00 35 1019.5
20260506193425 60 307 3.5 9.6 0.00 0.00 0.00 36 1019.7
20260506192921 59 215 3.5 10.4 0.00 0.00 0.00 35 1019.7
20260506192414 59 311 2.6 10.4 0.00 0.00 0.00 35 1019.6
20260506191908 58 243 2.6 10.4 0.00 0.00 0.00 36 1019.7
20260506191403 58 165 2.6 10.4 0.00 0.00 0.00 36 1019.8
20260506190854 58 84 1.7 8.7 0.00 0.00 0.00 40 1019.8
20260506190349 58 250 2.6 9.6 0.00 0.00 0.00 37 1019.8
20260506185844 58 279 2.6 9.6 0.00 0.00 0.00 36 1019.8
20260506185337 58 325 2.6 9.6 0.00 0.00 0.00 39 1019.9
20260506184830 57 33 2.6 9.6 0.00 0.00 0.00 37 1020.1
20260506184325 57 344 2.6 7.8 0.00 0.00 0.00 36 1020.0
20260506183820 57 109 1.7 9.6 0.00 0.00 0.00 40 1020.1
20260506183314 57 307 1.7 9.6 0.00 0.00 0.00 38 1020.1
20260506182808 57 218 2.6 9.6 0.00 0.00 0.00 37 1020.1
20260506182306 58 184 2.6 9.6 0.00 0.00 0.00 38 1020.3
20260506181754 57 248 2.6 7.8 0.00 0.00 0.00 41 1020.3
20260506181249 58 137 2.6 7.8 0.00 0.00 0.00 39 1020.3
20260506181006 57 178 2.6 7.8 0.00 0.00 0.00 37 1020.4
20260506180238 57 90 2.6 7.8 0.00 0.00 0.00 37 1020.4
20260506175731 58 62 3.5 9.6 0.00 0.00 0.00 38 1020.5
20260506175225 58 99 2.6 9.6 0.00 0.00 0.00 37 1020.7
20260506174720 57 237 2.6 7.8 0.00 0.00 0.00 39 1020.6
20260506174212 57 229 2.6 7.8 0.00 0.00 0.00 38 1020.8
20260506173707 58 107 2.6 7.8 0.00 0.00 0.00 39 1020.7
20260506173202 58 259 2.6 11.3 0.00 0.00 0.00 40 1020.9
20260506172655 57 346 2.6 11.3 0.00 0.00 0.00 42 1020.8
20260506172150 56 294 2.6 11.3 0.00 0.00 0.00 41 1020.8
20260506171641 56 269 2.6 11.3 0.00 0.01 0.00 42 1020.9
20260506171138 56 239 2.6 7.0 0.00 0.01 0.00 41 1021.0
20260506170903 56 5 2.6 7.0 0.00 0.01 0.00 43 1021.1
20260506170131 56 111 1.7 7.0 0.00 0.01 0.00 44 1021.0
20260506165631 56 96 1.7 7.0 0.00 0.01 0.00 46 1021.1
20260506165134 55 234 1.7 7.0 0.00 0.01 0.00 45 1021.2
20260506164851 54 272 1.7 6.1 0.00 0.01 0.00 44 1021.3
20260506164131 54 254 1.7 6.1 0.00 0.01 0.00 42 1021.2
20260506163630 54 86 2.6 6.1 0.00 0.01 0.00 42 1021.5
20260506163131 54 251 1.7 6.1 0.00 0.01 0.00 43 1021.3
20260506162629 55 211 1.7 5.2 0.00 0.01 0.00 47 1021.3
20260506162130 55 246 1.7 5.2 0.00 0.01 0.00 42 1021.3
20260506161852 54 199 1.7 5.2 0.00 0.01 0.00 44 1021.3
20260506161128 54 85 1.7 4.3 0.00 0.01 0.00 44 1021.5
20260506160630 54 46 1.7 4.3 0.00 0.01 0.00 44 1021.3
20260506160129 54 250 1.7 4.3 0.00 0.01 0.00 45 1021.3
20260506155634 54 55 1.7 5.2 0.00 0.01 0.00 45 1021.2
20260506155130 54 67 1.7 5.2 0.00 0.01 0.00 45 1021.3
20260506154624 54 143 1.7 5.2 0.00 0.01 0.00 46 1021.3
20260506154124 54 121 1.7 5.2 0.00 0.01 0.00 47 1021.2
20260506153623 53 119 0.9 4.3 0.00 0.01 0.00 48 1021.2
20260506153350 53 171 1.7 8.7 0.00 0.01 0.00 51 1021.3
20260506152623 52 314 1.7 8.7 0.00 0.01 0.00 47 1021.2
20260506152349 52 250 1.7 5.2 0.00 0.01 0.00 46 1021.3
20260506151842 52 253 1.7 4.3 0.00 0.01 0.00 46 1021.3
20260506151122 52 82 1.7 5.2 0.00 0.01 0.00 47 1021.3
20260506150851 52 176 1.7 5.2 0.00 0.01 0.00 49 1021.2
20260506150120 52 221 1.7 5.2 0.00 0.01 0.00 49 1021.2
20260506145620 52 286 1.7 5.2 0.00 0.01 0.00 49 1021.1
20260506145120 51 280 1.7 5.2 0.00 0.01 0.00 48 1021.2
20260506144620 51 87 1.7 3.5 0.00 0.01 0.00 49 1021.3
20260506144340 51 300 1.7 3.5 0.00 0.01 0.00 50 1021.3
20260506143838 50 292 1.7 4.3 0.00 0.01 0.00 52 1021.3
20260506143118 50 244 1.7 4.3 0.00 0.01 0.00 52 1021.2
20260506142621 50 226 1.7 4.3 0.00 0.01 0.00 51 1021.3
20260506142348 50 243 1.7 4.3 0.00 0.01 0.00 52 1021.1
20260506141617 50 272 0.9 3.5 0.00 0.01 0.00 50 1021.1
20260506141342 50 88 0.9 2.6 0.00 0.01 0.00 52 1021.0
20260506140617 50 262 0.9 3.5 0.00 0.01 0.00 52 1020.9
20260506140351 49 302 0.9 3.5 0.00 0.01 0.00 52 1020.9
20260506135614 49 153 0.9 3.5 0.00 0.01 0.00 53 1020.9
20260506135115 49 71 0.9 3.5 0.00 0.01 0.00 54 1020.9
20260506134843 49 82 0.9 3.5 0.00 0.01 0.00 55 1020.9
20260506134114 48 107 0.9 3.5 0.00 0.01 0.00 55 1020.8
20260506133613 48 83 0.9 3.5 0.00 0.01 0.00 56 1020.8
20260506133114 47 86 0.9 2.6 0.00 0.01 0.00 58 1020.7
20260506132613 47 37 0.9 2.6 0.00 0.01 0.00 58 1020.8
20260506132114 47 70 0.9 3.5 0.00 0.01 0.00 59 1020.7
20260506131613 46 80 0.9 3.5 0.00 0.01 0.00 61 1020.6
20260506131114 45 63 0.9 3.5 0.00 0.01 0.00 60 1020.6
20260506130613 44 326 0.9 3.5 0.00 0.01 0.00 63 1020.5
20260506130115 44 288 0.9 2.6 0.00 0.01 0.00 65 1020.5
20260506125614 43 261 0.9 1.7 0.00 0.01 0.00 67 1020.6
20260506125115 42 261 0.9 1.7 0.00 0.01 0.00 68 1020.5
20260506124614 42 185 0.0 1.7 0.00 0.01 0.00 70 1020.5
20260506124114 41 97 0.0 0.0 0.00 0.01 0.00 71 1020.4
20260506123613 41 97 0.0 0.9 0.00 0.01 0.00 72 1020.3
20260506123111 40 97 0.0 0.9 0.00 0.01 0.00 72 1020.2
20260506122612 40 86 0.0 0.9 0.00 0.01 0.00 74 1020.1
20260506122107 39 86 0.0 0.0 0.00 0.01 0.00 75 1020.0
20260506121901 36 86 0.0 0.0 0.00 0.01 0.00 77 1019.8
20260506121607 38 86 0.0 0.0 0.00 0.01 0.00 76 1020.0
20260506121106 37 86 0.0 0.0 0.00 0.01 0.00 77 1019.9
20260506120104 36 86 0.0 0.0 0.00 0.01 0.00 77 1019.7
20260506115605 35 86 0.0 0.9 0.00 0.01 0.00 76 1019.4
20260506115100 35 86 0.0 0.9 0.00 0.01 0.00 76 1019.4